Regional Weather Roundup
Issued by NWS

Home | Current Version | Previous Version | Graphics & Text | Print | Product List | Glossary On
Versions: 1 2 3 4 5 6 7 8 9 10 11 12 13 14 15 16 17 18 19 20 21 22 23 24 25 26 27 28 29 30 31 32 33 34 35 36 37 38 39 40 41 42 43 44 45 46 47 48 49 50
853
ASUS45 KBOU 181907
RWRCO

WEATHER ROUNDUP FOR COLORADO
NATIONAL WEATHER SERVICE DENVER/BOULDER CO
100 PM MDT WED OCT 18 2017

NOTE: "FAIR" INDICATES FEW OR NO CLOUDS BELOW 12000 FEET WITH NO
SIGNIFICANT WEATHER AND/OR OBSTRUCTIONS TO VISIBILITY.

COZ001>005-013-030-031-182000-
...NORTHWEST COLORADO...

CITY           SKY/WX    TMP DP  RH WIND       PRES   REMARKS
CRAIG          FAIR      66   8  10 N3        30.27F
HAYDEN         FAIR      63   8  11 NE5       30.30F
MEEKER         FAIR     N/A N/A N/A MISG      30.26F
RABBIT EARS PA FAIR      48   3  15 W6        30.48F
STEAMBOAT SPGS FAIR      60   8  12 CALM      30.30F
WALDEN         FAIR      61   1   9 SW10      30.35F
$$

COZ006>008-011-182000-
...WEST CENTRAL VALLEYS...

CITY           SKY/WX    TMP DP  RH WIND       PRES   REMARKS
GRAND JUNCTION FAIR      65  14  14 VRB3      30.22F
MONTROSE       FAIR      67  16  14 CALM      30.27F
EAGLE          FAIR      58  14  17 CALM      30.33F
RIFLE          FAIR      64  18  17 CALM      30.26F
DELTA          FAIR      65  13  13 SW3       30.25F
NUCLA          FAIR      64  16  15 N5        30.29F
$$

COZ017>023-064>068-182000-
...SOUTHWEST COLORADO...

CITY           SKY/WX    TMP DP  RH WIND       PRES   REMARKS
DURANGO        FAIR      63  19  18 CALM      30.28F
CORTEZ         FAIR      71  11  10 S6        30.25F
PAGOSA SPRINGS FAIR      62   5  10 S3        30.33F
TELLURIDE      NOT AVBL
WOLF CREEK PAS FAIR      46   1  15 N3        30.60F
$$

COZ009-010-012-014-032>034-037-058>063-182000-
...CENTRAL COLORADO...

CITY           SKY/WX    TMP DP  RH WIND       PRES   REMARKS
ASPEN          FAIR      66   5   9 NW6       30.33F
BUENA VISTA    FAIR      58   7  13 SE6       30.34F
COPPER MTN     FAIR      46  -4  12 CALM      30.56
BERTHOUD PASS  FAIR      36  28  75 NW6       30.58S
COTTONWOOD PAS FAIR      59   9  13 E12       30.44F
GUNNISON       FAIR      49  11  21 CALM      30.40F
KREMMLING      FAIR      64   9  11 CALM      30.36F
LEADVILLE      FAIR      55 -10   6 CALM      30.43F
MONARCH PASS   FAIR      43   9  24 W15       30.65F
SALIDA         NOT AVBL
SUNLIGHT       FAIR      46   9  21 NW5       30.53S
WILKERSON PASS FAIR      46  -2  13 CALM      30.54F
$$

COZ069>075-182000-
...SAN LUIS VALLEY/SANGRE DE CRISTO MOUNTAINS...

CITY           SKY/WX    TMP DP  RH WIND       PRES   REMARKS
ALAMOSA        FAIR      61  13  15 W5        30.33F
DEL NORTE      FAIR      60  11  14 S3        30.37F
LA VETA PASS   FAIR      55  12  18 SW7       30.56F
SAGUACHE       FAIR      59  10  14 NW14      30.35F
$$

COZ035-036-038>040-182000-
...NORTHERN COLORADO FRONT RANGE...

CITY           SKY/WX    TMP DP  RH WIND       PRES   REMARKS
DENVER INTL AP FAIR      75  10   8 W7        30.16F
DMNS CITY PARK   N/A     74  11   8 SW1G9     30.15F
AURORA         MOSUNNY   73   8   8 CALM      30.18F
FRONT RANGE AP PTSUNNY   75  10   8 S6        30.18F
ERIE MUNI ARPT FAIR      73  11   9 CALM      30.20F
BOULDER MUN AP FAIR      72  23  16 CALM      30.16F
CENTENNIAL     PTSUNNY   72   6   7 VRB6      30.20F
BROOMFIELD     MOSUNNY   73  18  12 CALM      30.20
FORT COLLINS   FAIR      75  21  13 S12       30.14F
LONGMONT       FAIR      75  23  14 S10       30.15F
$$

COZ041-046-047-076>085-087-088-182000-
...PIKES PEAK/PALMER DIVIDE AND SOUTHERN FOOTHILLS...

CITY           SKY/WX    TMP DP  RH WIND       PRES   REMARKS
COLO. SPRINGS  PTSUNNY   74  10   8 N12       30.22F
A. F. ACADEMY  FAIR      71   0   6 N12G17    30.23F
SCHRIEVER AFB  FAIR      72   5   7 N17       30.22F
CHEYENNE MTN   NOT AVBL
ELLICOTT       FAIR     N/A N/A N/A N14G24    30.20F
FALCON         FAIR      71   5   7 N8G18     30.27F
FORT CARSON    FAIR      77   2   5 N13G21    30.19F
LIMON          FAIR      75  14  10 N10       30.17F
MONUMENT HILL  FAIR      66   9  10 NE7       30.29F
CANON CITY     SUNNY     75  18  11 SW14      30.17F
WALSENBURG     FAIR      77  16  10 NE6       30.20S
TRINIDAD       FAIR      75  21  13 CALM      30.18F
$$

COZ042>045-048>051-090-091-182000-
...NORTHEAST COLORADO...

CITY           SKY/WX    TMP DP  RH WIND       PRES   REMARKS
GREELEY ARPT   FAIR      75  25  15 SW6       30.14F
AKRON          FAIR      76  13   9 NW14G24   30.13F
BURLINGTON     LGT RAIN  81  17   9 N16G25    30.10F
WRAY           FAIR      81  16   9 N14G21    30.07F
YUMA           NOT AVBL
STERLING       FAIR      77  21  12 NE12      30.08F
HOLYOKE        FAIR      79  21  11 N10       30.09F
FORT MORGAN    FAIR      79  10   7 NW6G20    30.12F
$$

COZ086-089-092>099-182000-
...SOUTHEAST COLORADO...

CITY           SKY/WX    TMP DP  RH WIND       PRES   REMARKS
PUEBLO         FAIR      80  12   7 VRB3      30.13F
LA JUNTA       FAIR      78  31  17 VRB6      30.09F
LAMAR          FAIR      79  21  11 CALM      30.05F
SPRINGFIELD      N/A     80  31  16 E5        30.08F
$$




USA.gov is the U.S. government's official web portal to all federal, state and local government web resources and services.